Time,TemperatureF,DewpointF,PressureIn,WindDirection,WindDirectionDegrees,WindSpeedMPH,WindSpeedGustMPH,Humidity,HourlyPrecipIn,Conditions,Clouds,dailyrainin,SoftwareType,DateUTC
2013-10-21 00:00:00,49.5,38.6,30.01,ENE,58,0.0,7.0,66,0.00,,,0.01,Wunderground v.1.13,2013-10-21 04:00:00,
2013-10-21 00:05:00,49.4,38.5,30.01,ENE,58,0.0,7.0,66,0.00,,,0.00,Wunderground v.1.13,2013-10-21 04:05:00,
2013-10-21 00:10:00,49.4,38.5,30.01,ENE,58,0.0,7.0,66,0.00,,,0.00,Wunderground v.1.13,2013-10-21 04:10:00,
2013-10-21 00:15:00,49.2,38.3,30.01,ENE,58,0.0,7.0,66,0.00,,,0.00,Wunderground v.1.13,2013-10-21 04:15:00,
2013-10-21 00:20:00,49.2,38.3,30.00,ENE,58,0.0,7.0,66,0.00,,,0.00,Wunderground v.1.13,2013-10-21 04:20:00,
2013-10-21 00:25:00,49.2,38.3,30.00,ENE,58,0.0,7.0,66,0.00,,,0.00,Wunderground v.1.13,2013-10-21 04:25:00,
2013-10-21 00:30:00,49.2,38.3,30.00,ENE,58,1.0,7.0,66,0.00,,,0.00,Wunderground v.1.13,2013-10-21 04:30:00,
2013-10-21 00:35:00,49.2,38.3,30.00,ENE,58,1.0,7.0,66,0.00,,,0.00,Wunderground v.1.13,2013-10-21 04:35:00,
2013-10-21 00:40:00,49.2,38.3,30.00,ENE,58,1.0,1.0,66,0.00,,,0.00,Wunderground v.1.13,2013-10-21 04:40:00,
2013-10-21 00:45:00,49.2,38.3,30.00,ENE,58,0.0,7.0,66,0.00,,,0.00,Wunderground v.1.13,2013-10-21 04:45:00,
2013-10-21 00:50:00,49.2,38.3,30.00,ENE,58,0.0,7.0,66,0.00,,,0.00,Wunderground v.1.13,2013-10-21 04:50:00,
2013-10-21 00:55:00,49.1,38.2,30.00,ENE,58,0.0,7.0,66,0.00,,,0.00,Wunderground v.1.13,2013-10-21 04:55:00,
2013-10-21 01:00:00,48.9,38.4,30.00,ENE,58,0.0,7.0,67,0.00,,,0.00,Wunderground v.1.13,2013-10-21 05:00:00,
2013-10-21 01:05:00,48.8,38.3,30.00,ENE,58,0.0,7.0,67,0.00,,,0.00,Wunderground v.1.13,2013-10-21 05:05:00,
2013-10-21 01:10:00,48.6,38.5,30.00,ENE,58,1.0,1.0,68,0.00,,,0.00,Wunderground v.1.13,2013-10-21 05:10:00,
2013-10-21 01:15:00,48.5,38.4,30.00,ENE,58,1.0,1.0,68,0.00,,,0.00,Wunderground v.1.13,2013-10-21 05:15:00,
2013-10-21 01:20:00,48.3,38.2,30.00,ENE,58,1.0,7.0,68,0.00,,,0.00,Wunderground v.1.13,2013-10-21 05:20:00,
2013-10-21 01:25:00,48.3,38.2,30.00,ENE,58,1.0,7.0,68,0.00,,,0.00,Wunderground v.1.13,2013-10-21 05:25:00,
2013-10-21 01:30:00,48.2,38.1,30.00,ENE,58,1.0,7.0,68,0.00,,,0.00,Wunderground v.1.13,2013-10-21 05:30:00,
2013-10-21 01:35:00,48.0,37.9,30.00,ENE,58,1.0,7.0,68,0.00,,,0.00,Wunderground v.1.13,2013-10-21 05:35:00,
2013-10-21 01:40:00,48.0,38.3,30.00,ENE,58,1.0,7.0,69,0.00,,,0.00,Wunderground v.1.13,2013-10-21 05:40:00,
2013-10-21 01:50:00,47.7,38.4,30.00,ENE,58,1.0,1.0,70,0.00,,,0.00,Wunderground v.1.13,2013-10-21 05:50:00,
2013-10-21 01:55:00,47.6,38.3,30.00,ENE,58,1.0,7.0,70,0.00,,,0.00,Wunderground v.1.13,2013-10-21 05:55:00,
2013-10-21 02:00:00,47.4,38.5,30.00,ENE,58,2.0,2.0,71,0.00,,,0.00,Wunderground v.1.13,2013-10-21 06:00:00,
2013-10-21 02:05:00,47.4,38.5,30.00,NE,56,2.0,7.0,71,0.00,,,0.00,Wunderground v.1.13,2013-10-21 06:05:00,
2013-10-21 02:10:00,47.3,38.7,30.00,NE,56,2.0,7.0,72,0.00,,,0.00,Wunderground v.1.13,2013-10-21 06:10:00,
2013-10-21 02:15:00,47.1,38.9,30.00,NE,56,2.0,2.0,73,0.00,,,0.00,Wunderground v.1.13,2013-10-21 06:15:00,
2013-10-21 02:25:00,46.8,38.9,30.00,NE,56,1.0,7.0,74,0.00,,,0.00,Wunderground v.1.13,2013-10-21 06:25:00,
2013-10-21 02:30:00,46.5,39.0,30.00,NE,56,0.0,7.0,75,0.00,,,0.00,Wunderground v.1.13,2013-10-21 06:30:00,
2013-10-21 02:35:00,46.2,38.7,30.00,NE,56,0.0,7.0,75,0.00,,,0.00,Wunderground v.1.13,2013-10-21 06:35:00,
2013-10-21 02:40:00,46.1,39.0,30.00,NE,56,1.0,7.0,76,0.00,,,0.00,Wunderground v.1.13,2013-10-21 06:40:00,
2013-10-21 02:45:00,46.0,38.9,30.00,NE,56,1.0,7.0,76,0.00,,,0.00,Wunderground v.1.13,2013-10-21 06:45:00,
2013-10-21 02:55:00,45.7,38.9,30.00,NE,56,1.0,1.0,77,0.00,,,0.00,Wunderground v.1.13,2013-10-21 06:55:00,
2013-10-21 03:00:00,45.7,38.9,30.00,NE,56,1.0,7.0,77,0.00,,,0.00,Wunderground v.1.13,2013-10-21 07:00:00,
2013-10-21 03:05:00,45.5,38.7,30.00,NE,56,1.0,7.0,77,0.00,,,0.00,Wunderground v.1.13,2013-10-21 07:05:00,
2013-10-21 03:10:00,45.4,38.6,30.00,NE,56,1.0,1.0,77,0.00,,,0.00,Wunderground v.1.13,2013-10-21 07:10:00,
2013-10-21 03:15:00,45.4,38.9,30.00,NE,56,0.0,7.0,78,0.00,,,0.00,Wunderground v.1.13,2013-10-21 07:15:00,
2013-10-21 03:20:00,45.2,39.1,30.00,NE,56,0.0,7.0,79,0.00,,,0.00,Wunderground v.1.13,2013-10-21 07:20:00,
2013-10-21 03:30:00,44.9,38.8,30.00,NE,56,1.0,7.0,79,0.00,,,0.00,Wunderground v.1.13,2013-10-21 07:30:00,
2013-10-21 03:35:00,44.8,38.7,30.00,NE,56,1.0,1.0,79,0.00,,,0.00,Wunderground v.1.13,2013-10-21 07:35:00,
2013-10-21 03:40:00,44.6,38.8,30.00,NE,56,1.0,1.0,80,0.00,,,0.00,Wunderground v.1.13,2013-10-21 07:40:00,
2013-10-21 03:45:00,44.6,38.8,30.00,NE,56,0.0,7.0,80,0.00,,,0.00,Wunderground v.1.13,2013-10-21 07:45:00,
2013-10-21 03:50:00,44.5,38.7,30.00,NE,56,0.0,7.0,80,0.00,,,0.00,Wunderground v.1.13,2013-10-21 07:50:00,
2013-10-21 04:00:00,44.2,38.7,30.00,NE,56,0.0,7.0,81,0.00,,,0.00,Wunderground v.1.13,2013-10-21 08:00:00,
2013-10-21 04:05:00,44.1,38.6,30.00,NE,56,1.0,7.0,81,0.00,,,0.00,Wunderground v.1.13,2013-10-21 08:05:00,
2013-10-21 04:10:00,43.9,38.8,30.00,NE,56,1.0,1.0,82,0.00,,,0.00,Wunderground v.1.13,2013-10-21 08:10:00,
2013-10-21 04:15:00,43.8,38.7,30.00,NE,56,1.0,1.0,82,0.00,,,0.00,Wunderground v.1.13,2013-10-21 08:15:00,
2013-10-21 04:20:00,43.8,38.7,30.00,NE,56,0.0,7.0,82,0.00,,,0.00,Wunderground v.1.13,2013-10-21 08:20:00,
2013-10-21 04:25:00,43.6,38.5,30.00,NE,56,0.0,7.0,82,0.00,,,0.00,Wunderground v.1.13,2013-10-21 08:25:00,
2013-10-21 04:30:00,43.5,38.4,30.00,NE,56,0.0,7.0,82,0.00,,,0.00,Wunderground v.1.13,2013-10-21 08:30:00,
2013-10-21 04:35:00,43.3,38.2,30.00,NE,56,0.0,7.0,82,0.00,,,0.00,Wunderground v.1.13,2013-10-21 08:35:00,
2013-10-21 04:40:00,43.3,38.5,30.00,NE,56,0.0,7.0,83,0.00,,,0.00,Wunderground v.1.13,2013-10-21 08:40:00,
2013-10-21 04:45:00,43.3,38.5,30.00,NE,56,0.0,7.0,83,0.00,,,0.00,Wunderground v.1.13,2013-10-21 08:45:00,
2013-10-21 04:50:00,43.2,38.4,30.01,NE,56,0.0,7.0,83,0.00,,,0.00,Wunderground v.1.13,2013-10-21 08:50:00,
2013-10-21 04:55:00,43.1,38.3,30.01,NE,56,0.0,7.0,83,0.00,,,0.00,Wunderground v.1.13,2013-10-21 08:55:00,
2013-10-21 05:05:00,43.1,38.3,30.01,NE,56,1.0,1.0,83,0.00,,,0.00,Wunderground v.1.13,2013-10-21 09:05:00,
2013-10-21 05:10:00,43.1,38.0,30.01,NNE,25,0.0,7.0,82,0.00,,,0.00,Wunderground v.1.13,2013-10-21 09:10:00,
2013-10-21 05:15:00,43.1,38.3,30.01,NE,56,0.0,7.0,83,0.00,,,0.00,Wunderground v.1.13,2013-10-21 09:15:00,
2013-10-21 05:20:00,43.1,38.3,30.01,NE,56,0.0,7.0,83,0.00,,,0.00,Wunderground v.1.13,2013-10-21 09:20:00,
2013-10-21 05:25:00,43.1,38.3,30.01,NE,56,1.0,1.0,83,0.00,,,0.00,Wunderground v.1.13,2013-10-21 09:25:00,
2013-10-21 05:35:00,42.9,38.1,30.01,NE,56,1.0,1.0,83,0.00,,,0.00,Wunderground v.1.13,2013-10-21 09:35:00,
2013-10-21 05:40:00,42.8,38.0,30.01,NE,56,1.0,1.0,83,0.00,,,0.00,Wunderground v.1.13,2013-10-21 09:40:00,
2013-10-21 05:45:00,42.6,37.8,30.01,NE,56,0.0,7.0,83,0.00,,,0.00,Wunderground v.1.13,2013-10-21 09:45:00,
2013-10-21 05:50:00,42.6,37.8,30.01,NE,56,0.0,7.0,83,0.00,,,0.00,Wunderground v.1.13,2013-10-21 09:50:00,
2013-10-21 05:55:00,42.5,38.0,30.01,NE,56,1.0,1.0,84,0.00,,,0.00,Wunderground v.1.13,2013-10-21 09:55:00,
2013-10-21 06:00:00,42.3,37.8,30.01,NNE,24,0.0,7.0,84,0.00,,,0.00,Wunderground v.1.13,2013-10-21 10:00:00,
2013-10-21 06:10:00,42.2,37.7,30.01,NE,56,0.0,7.0,84,0.00,,,0.00,Wunderground v.1.13,2013-10-21 10:10:00,
2013-10-21 06:15:00,42.2,38.0,30.01,NE,56,0.0,7.0,85,0.00,,,0.00,Wunderground v.1.13,2013-10-21 10:15:00,
2013-10-21 06:20:00,42.1,37.9,30.02,NE,56,0.0,7.0,85,0.00,,,0.00,Wunderground v.1.13,2013-10-21 10:20:00,
2013-10-21 06:25:00,42.1,37.9,30.02,NE,56,0.0,7.0,85,0.00,,,0.00,Wunderground v.1.13,2013-10-21 10:25:00,
2013-10-21 06:30:00,41.9,37.7,30.02,NE,56,1.0,7.0,85,0.00,,,0.00,Wunderground v.1.13,2013-10-21 10:30:00,
2013-10-21 06:40:00,41.8,37.6,30.02,NE,56,0.0,7.0,85,0.00,,,0.00,Wunderground v.1.13,2013-10-21 10:40:00,
2013-10-21 06:45:00,41.8,37.6,30.02,NE,56,1.0,7.0,85,0.00,,,0.00,Wunderground v.1.13,2013-10-21 10:45:00,
2013-10-21 06:50:00,41.8,37.6,30.02,NE,56,1.0,1.0,85,0.00,,,0.00,Wunderground v.1.13,2013-10-21 10:50:00,
2013-10-21 06:55:00,41.8,37.6,30.02,NE,56,1.0,1.0,85,0.00,,,0.00,Wunderground v.1.13,2013-10-21 10:55:00,
2013-10-21 07:00:00,41.8,37.6,30.02,NE,56,1.0,1.0,85,0.00,,,0.00,Wunderground v.1.13,2013-10-21 11:00:00,
2013-10-21 07:05:00,41.8,37.6,30.02,NE,56,0.0,7.0,85,0.00,,,0.00,Wunderground v.1.13,2013-10-21 11:05:00,
2013-10-21 07:15:00,41.6,37.4,30.02,NE,56,0.0,7.0,85,0.00,,,0.00,Wunderground v.1.13,2013-10-21 11:15:00,
2013-10-21 07:20:00,41.6,37.4,30.02,NE,56,0.0,7.0,85,0.00,,,0.00,Wunderground v.1.13,2013-10-21 11:20:00,
2013-10-21 07:25:00,41.5,37.3,30.02,NE,56,0.0,7.0,85,0.00,,,0.00,Wunderground v.1.13,2013-10-21 11:25:00,
2013-10-21 07:30:00,41.5,37.6,30.02,NE,56,0.0,7.0,86,0.00,,,0.00,Wunderground v.1.13,2013-10-21 11:30:00,
2013-10-21 07:35:00,41.5,37.6,30.01,NE,56,0.0,7.0,86,0.00,,,0.00,Wunderground v.1.13,2013-10-21 11:35:00,
2013-10-21 07:40:00,41.3,37.4,30.01,NE,56,0.0,7.0,86,0.00,,,0.00,Wunderground v.1.13,2013-10-21 11:40:00,
2013-10-21 07:45:00,41.3,37.4,30.01,NE,56,0.0,7.0,86,0.00,,,0.00,Wunderground v.1.13,2013-10-21 11:45:00,
2013-10-21 07:55:00,41.2,37.3,30.02,NE,56,1.0,1.0,86,0.00,,,0.00,Wunderground v.1.13,2013-10-21 11:55:00,
2013-10-21 08:00:00,41.2,37.3,30.02,NE,56,0.0,7.0,86,0.00,,,0.00,Wunderground v.1.13,2013-10-21 12:00:00,
2013-10-21 08:05:00,41.2,37.3,30.02,NE,56,0.0,7.0,86,0.00,,,0.00,Wunderground v.1.13,2013-10-21 12:05:00,
2013-10-21 08:10:00,41.2,37.3,30.02,NE,56,0.0,7.0,86,0.00,,,0.00,Wunderground v.1.13,2013-10-21 12:10:00,
2013-10-21 08:20:00,41.2,37.3,30.02,NE,56,0.0,7.0,86,0.00,,,0.00,Wunderground v.1.13,2013-10-21 12:20:00,
2013-10-21 08:25:00,41.3,37.4,30.02,NE,56,0.0,7.0,86,0.00,,,0.00,Wunderground v.1.13,2013-10-21 12:25:00,
2013-10-21 08:30:00,41.3,37.4,30.02,NE,56,0.0,7.0,86,0.00,,,0.00,Wunderground v.1.13,2013-10-21 12:30:00,
2013-10-21 08:35:00,41.5,37.3,30.02,NE,56,1.0,7.0,85,0.00,,,0.00,Wunderground v.1.13,2013-10-21 12:35:00,
2013-10-21 08:40:00,41.8,37.6,30.02,NE,56,1.0,1.0,85,0.00,,,0.00,Wunderground v.1.13,2013-10-21 12:40:00,
2013-10-21 08:45:00,42.1,37.6,30.02,NE,56,1.0,7.0,84,0.00,,,0.00,Wunderground v.1.13,2013-10-21 12:45:00,
2013-10-21 08:50:00,42.3,37.5,30.03,NE,56,1.0,7.0,83,0.00,,,0.00,Wunderground v.1.13,2013-10-21 12:50:00,
2013-10-21 08:55:00,42.6,37.5,30.03,NE,55,2.0,2.0,82,0.00,,,0.00,Wunderground v.1.13,2013-10-21 12:55:00,
2013-10-21 09:00:00,43.1,37.7,30.03,NE,38,3.0,7.0,81,0.00,,,0.00,Wunderground v.1.13,2013-10-21 13:00:00,
2013-10-21 09:05:00,43.5,37.4,30.03,ENE,58,3.0,7.0,79,0.00,,,0.00,Wunderground v.1.13,2013-10-21 13:05:00,
2013-10-21 09:10:00,43.9,37.5,30.03,ENE,71,3.0,7.0,78,0.00,,,0.00,Wunderground v.1.13,2013-10-21 13:10:00,
2013-10-21 09:20:00,44.6,37.5,30.03,NE,51,2.0,7.0,76,0.00,,,0.00,Wunderground v.1.13,2013-10-21 13:20:00,
2013-10-21 09:25:00,45.1,37.6,30.03,ENE,62,1.0,1.0,75,0.00,,,0.00,Wunderground v.1.13,2013-10-21 13:25:00,
2013-10-21 09:30:00,45.5,38.0,30.03,ENE,65,1.0,7.0,75,0.00,,,0.00,Wunderground v.1.13,2013-10-21 13:30:00,
2013-10-21 09:35:00,46.0,38.2,30.03,ENE,64,1.0,1.0,74,0.00,,,0.00,Wunderground v.1.13,2013-10-21 13:35:00,
2013-10-21 09:40:00,46.4,38.2,30.03,ENE,61,1.0,7.0,73,0.00,,,0.00,Wunderground v.1.13,2013-10-21 13:40:00,
2013-10-21 09:45:00,47.0,38.4,30.03,ENE,61,1.0,1.0,72,0.00,,,0.00,Wunderground v.1.13,2013-10-21 13:45:00,
2013-10-21 09:55:00,48.2,38.5,30.03,ENE,58,1.0,1.0,69,0.00,,,0.00,Wunderground v.1.13,2013-10-21 13:55:00,
2013-10-21 10:00:00,48.8,39.1,30.03,ENE,58,1.0,7.0,69,0.00,,,0.00,Wunderground v.1.13,2013-10-21 14:00:00,
2013-10-21 10:05:00,49.5,38.6,30.02,NE,51,1.0,7.0,66,0.00,,,0.00,Wunderground v.1.13,2013-10-21 14:05:00,
2013-10-21 10:10:00,50.1,38.8,30.02,NNE,25,2.0,2.0,65,0.00,,,0.00,Wunderground v.1.13,2013-10-21 14:10:00,
2013-10-21 10:15:00,50.8,39.1,30.02,NNE,31,2.0,2.0,64,0.00,,,0.00,Wunderground v.1.13,2013-10-21 14:15:00,
2013-10-21 10:25:00,52.2,39.6,30.02,North,10,2.0,7.0,62,0.00,,,0.00,Wunderground v.1.13,2013-10-21 14:25:00,
2013-10-21 10:30:00,52.8,39.3,30.02,ENE,61,2.0,2.0,60,0.00,,,0.00,Wunderground v.1.13,2013-10-21 14:30:00,
2013-10-21 10:35:00,53.3,39.8,30.01,ENE,62,2.0,2.0,60,0.00,,,0.00,Wunderground v.1.13,2013-10-21 14:35:00,
2013-10-21 10:40:00,54.1,39.6,30.01,NNE,27,1.0,1.0,58,0.00,,,0.00,Wunderground v.1.13,2013-10-21 14:40:00,
2013-10-21 10:45:00,54.7,39.3,30.01,North,0,0.0,7.0,56,0.00,,,0.00,Wunderground v.1.13,2013-10-21 14:45:00,
2013-10-21 10:50:00,55.3,39.4,30.00,NE,44,0.0,7.0,55,0.00,,,0.00,Wunderground v.1.13,2013-10-21 14:50:00,
2013-10-21 11:00:00,56.7,40.7,30.00,South,178,0.0,7.0,55,0.00,,,0.00,Wunderground v.1.13,2013-10-21 15:00:00,
2013-10-21 11:05:00,57.3,38.8,29.99,NE,51,1.0,7.0,50,0.00,,,0.00,Wunderground v.1.13,2013-10-21 15:05:00,
2013-10-21 11:10:00,58.1,39.0,29.99,East,79,2.0,7.0,49,0.00,,,0.00,Wunderground v.1.13,2013-10-21 15:10:00,
2013-10-21 11:15:00,58.9,38.7,29.99,ESE,106,4.0,10.0,47,0.00,,,0.00,Wunderground v.1.13,2013-10-21 15:15:00,
2013-10-21 11:20:00,59.3,38.5,29.99,ESE,116,6.0,6.0,46,0.00,,,0.00,Wunderground v.1.13,2013-10-21 15:20:00,
2013-10-21 11:30:00,60.1,39.2,29.99,ESE,109,4.0,7.0,46,0.00,,,0.00,Wunderground v.1.13,2013-10-21 15:30:00,
2013-10-21 11:35:00,60.5,39.0,29.98,ENE,64,5.0,13.0,45,0.00,,,0.00,Wunderground v.1.13,2013-10-21 15:35:00,
2013-10-21 11:40:00,60.9,38.8,29.98,East,95,6.0,7.0,44,0.00,,,0.00,Wunderground v.1.13,2013-10-21 15:40:00,
2013-10-21 11:45:00,61.2,39.1,29.98,ENE,73,7.0,8.0,44,0.00,,,0.00,Wunderground v.1.13,2013-10-21 15:45:00,
2013-10-21 11:50:00,61.3,39.2,29.98,East,82,6.0,7.0,44,0.00,,,0.00,Wunderground v.1.13,2013-10-21 15:50:00,
2013-10-21 11:55:00,61.5,38.8,29.98,SE,126,6.0,6.0,43,0.00,,,0.00,Wunderground v.1.13,2013-10-21 15:55:00,
2013-10-21 12:05:00,61.6,40.0,29.98,East,89,5.0,5.0,45,0.00,,,0.00,Wunderground v.1.13,2013-10-21 16:05:00,
2013-10-21 12:10:00,61.8,39.6,29.98,SE,134,5.0,5.0,44,0.00,,,0.00,Wunderground v.1.13,2013-10-21 16:10:00,
2013-10-21 12:15:00,62.1,40.5,29.98,East,79,6.0,7.0,45,0.00,,,0.00,Wunderground v.1.13,2013-10-21 16:15:00,
2013-10-21 12:20:00,62.4,39.6,29.98,SE,133,6.0,7.0,43,0.00,,,0.00,Wunderground v.1.13,2013-10-21 16:20:00,
2013-10-21 12:25:00,62.7,39.9,29.98,East,85,6.0,7.0,43,0.00,,,0.00,Wunderground v.1.13,2013-10-21 16:25:00,
2013-10-21 12:35:00,63.4,39.3,29.97,East,79,6.0,8.0,41,0.00,,,0.00,Wunderground v.1.13,2013-10-21 16:35:00,
2013-10-21 12:40:00,63.5,39.4,29.97,ENE,62,6.0,10.0,41,0.00,,,0.00,Wunderground v.1.13,2013-10-21 16:40:00,
2013-10-21 12:45:00,63.7,38.9,29.97,East,95,6.0,6.0,40,0.00,,,0.00,Wunderground v.1.13,2013-10-21 16:45:00,
2013-10-21 12:50:00,63.9,39.7,29.97,ESE,104,5.0,7.0,41,0.00,,,0.00,Wunderground v.1.13,2013-10-21 16:50:00,
2013-10-21 12:55:00,64.2,39.4,29.97,East,89,6.0,7.0,40,0.00,,,0.00,Wunderground v.1.13,2013-10-21 16:55:00,
2013-10-21 13:00:00,64.7,39.2,29.97,ENE,75,6.0,10.0,39,0.00,,,0.00,Wunderground v.1.13,2013-10-21 17:00:00,
2013-10-21 13:10:00,65.3,39.0,29.96,East,90,7.0,7.0,38,0.00,,,0.00,Wunderground v.1.13,2013-10-21 17:10:00,
2013-10-21 13:15:00,65.0,38.1,29.96,ENE,65,8.0,8.0,37,0.00,,,0.00,Wunderground v.1.13,2013-10-21 17:15:00,
2013-10-21 13:20:00,64.7,38.5,29.95,East,85,7.0,7.0,38,0.00,,,0.00,Wunderground v.1.13,2013-10-21 17:20:00,
2013-10-21 13:25:00,65.2,38.9,29.95,East,88,6.0,8.0,38,0.00,,,0.00,Wunderground v.1.13,2013-10-21 17:25:00,
2013-10-21 13:30:00,66.1,39.7,29.95,East,83,6.0,11.0,38,0.00,,,0.00,Wunderground v.1.13,2013-10-21 17:30:00,
2013-10-21 13:40:00,67.3,38.7,29.95,ESE,116,7.0,7.0,35,0.00,,,0.00,Wunderground v.1.13,2013-10-21 17:40:00,
2013-10-21 13:45:00,67.1,38.5,29.95,ENE,64,7.0,9.0,35,0.00,,,0.00,Wunderground v.1.13,2013-10-21 17:45:00,
2013-10-21 13:50:00,67.1,39.2,29.93,ENE,75,6.0,8.0,36,0.00,,,0.00,Wunderground v.1.13,2013-10-21 17:50:00,
2013-10-21 13:55:00,67.8,39.1,29.93,North,0,5.0,5.0,35,0.00,,,0.00,Wunderground v.1.13,2013-10-21 17:55:00,
2013-10-21 14:00:00,68.6,38.3,29.93,North,11,4.0,4.0,33,0.00,,,0.00,Wunderground v.1.13,2013-10-21 18:00:00,
2013-10-21 14:05:00,68.8,39.3,29.91,ESE,102,5.0,7.0,34,0.00,,,0.00,Wunderground v.1.13,2013-10-21 18:05:00,
2013-10-21 14:15:00,68.4,38.9,29.91,ENE,58,6.0,7.0,34,0.00,,,0.00,Wunderground v.1.13,2013-10-21 18:15:00,
2013-10-21 14:20:00,68.9,37.0,29.91,ENE,71,5.0,5.0,31,0.00,,,0.00,Wunderground v.1.13,2013-10-21 18:20:00,
2013-10-21 14:25:00,69.3,38.2,29.91,East,100,5.0,8.0,32,0.00,,,0.00,Wunderground v.1.13,2013-10-21 18:25:00,
2013-10-21 14:30:00,68.4,34.9,29.91,ENE,69,7.0,8.0,29,0.00,,,0.00,Wunderground v.1.13,2013-10-21 18:30:00,
2013-10-21 14:35:00,68.1,36.3,29.91,East,79,8.0,11.0,31,0.00,,,0.00,Wunderground v.1.13,2013-10-21 18:35:00,
2013-10-21 14:40:00,67.6,35.0,29.91,East,83,7.0,8.0,30,0.00,,,0.00,Wunderground v.1.13,2013-10-21 18:40:00,
2013-10-21 14:45:00,67.4,34.9,29.91,East,89,7.0,7.0,30,0.00,,,0.00,Wunderground v.1.13,2013-10-21 18:45:00,
2013-10-21 14:50:00,67.3,35.6,29.91,East,93,7.0,7.0,31,0.00,,,0.00,Wunderground v.1.13,2013-10-21 18:50:00,
2013-10-21 14:55:00,67.1,35.4,29.91,North,11,7.0,9.0,31,0.00,,,0.00,Wunderground v.1.13,2013-10-21 18:55:00,
2013-10-21 15:00:00,67.6,35.0,29.91,ENE,71,8.0,8.0,30,0.00,,,0.00,Wunderground v.1.13,2013-10-21 19:00:00,
2013-10-21 15:05:00,67.6,34.2,29.91,East,88,7.0,7.0,29,0.00,,,0.00,Wunderground v.1.13,2013-10-21 19:05:00,
2013-10-21 15:15:00,67.1,35.4,29.91,East,89,6.0,7.0,31,0.00,,,0.00,Wunderground v.1.13,2013-10-21 19:15:00,
2013-10-21 15:20:00,66.9,37.6,29.91,ESE,109,5.0,5.0,34,0.00,,,0.00,Wunderground v.1.13,2013-10-21 19:20:00,
2013-10-21 15:25:00,67.1,37.0,29.91,East,83,4.0,4.0,33,0.00,,,0.00,Wunderground v.1.13,2013-10-21 19:25:00,
2013-10-21 15:30:00,67.3,37.2,29.91,ENE,72,4.0,4.0,33,0.00,,,0.00,Wunderground v.1.13,2013-10-21 19:30:00,
2013-10-21 15:35:00,67.6,35.9,29.90,East,96,4.0,4.0,31,0.00,,,0.00,Wunderground v.1.13,2013-10-21 19:35:00,
2013-10-21 15:40:00,67.4,35.7,29.90,ENE,72,6.0,6.0,31,0.00,,,0.00,Wunderground v.1.13,2013-10-21 19:40:00,
2013-10-21 15:50:00,67.3,36.4,29.91,East,100,6.0,6.0,32,0.00,,,0.00,Wunderground v.1.13,2013-10-21 19:50:00,
2013-10-21 15:55:00,67.3,35.6,29.91,ENE,69,6.0,8.0,31,0.00,,,0.00,Wunderground v.1.13,2013-10-21 19:55:00,
2013-10-21 16:00:00,67.4,35.7,29.91,East,85,7.0,11.0,31,0.00,,,0.00,Wunderground v.1.13,2013-10-21 20:00:00,
2013-10-21 16:05:00,67.4,35.7,29.90,East,88,7.0,7.0,31,0.00,,,0.00,Wunderground v.1.13,2013-10-21 20:05:00,
2013-10-21 16:10:00,67.6,35.9,29.90,NE,51,6.0,10.0,31,0.00,,,0.00,Wunderground v.1.13,2013-10-21 20:10:00,
2013-10-21 16:20:00,67.3,36.4,29.90,SE,128,7.0,7.0,32,0.00,,,0.00,Wunderground v.1.13,2013-10-21 20:20:00,
2013-10-21 16:25:00,67.1,37.0,29.90,ENE,76,6.0,7.0,33,0.00,,,0.00,Wunderground v.1.13,2013-10-21 20:25:00,
2013-10-21 16:30:00,67.1,37.8,29.90,East,79,6.0,6.0,34,0.00,,,0.00,Wunderground v.1.13,2013-10-21 20:30:00,
2013-10-21 16:35:00,66.8,37.5,29.89,ENE,62,5.0,7.0,34,0.00,,,0.00,Wunderground v.1.13,2013-10-21 20:35:00,
2013-10-21 16:40:00,66.9,37.6,29.89,NNE,32,4.0,4.0,34,0.00,,,0.00,Wunderground v.1.13,2013-10-21 20:40:00,
2013-10-21 16:45:00,67.1,37.8,29.89,East,88,5.0,5.0,34,0.00,,,0.00,Wunderground v.1.13,2013-10-21 20:45:00,
2013-10-21 16:55:00,67.4,37.3,29.89,NE,41,5.0,7.0,33,0.00,,,0.00,Wunderground v.1.13,2013-10-21 20:55:00,
2013-10-21 17:00:00,67.3,38.0,29.89,ENE,69,6.0,6.0,34,0.00,,,0.00,Wunderground v.1.13,2013-10-21 21:00:00,
2013-10-21 17:05:00,67.3,37.2,29.89,ESE,102,6.0,7.0,33,0.00,,,0.00,Wunderground v.1.13,2013-10-21 21:05:00,
2013-10-21 17:10:00,67.1,38.5,29.89,ESE,112,5.0,7.0,35,0.00,,,0.00,Wunderground v.1.13,2013-10-21 21:10:00,
2013-10-21 17:15:00,67.1,37.8,29.89,NNE,30,4.0,4.0,34,0.00,,,0.00,Wunderground v.1.13,2013-10-21 21:15:00,
2013-10-21 17:25:00,66.9,37.6,29.90,ENE,72,5.0,5.0,34,0.00,,,0.00,Wunderground v.1.13,2013-10-21 21:25:00,
2013-10-21 17:30:00,66.9,37.6,29.90,East,95,5.0,5.0,34,0.00,,,0.00,Wunderground v.1.13,2013-10-21 21:30:00,
2013-10-21 17:35:00,66.9,37.6,29.90,ENE,78,5.0,8.0,34,0.00,,,0.00,Wunderground v.1.13,2013-10-21 21:35:00,
2013-10-21 17:40:00,66.8,37.5,29.90,ESE,119,6.0,11.0,34,0.00,,,0.00,Wunderground v.1.13,2013-10-21 21:40:00,
2013-10-21 17:45:00,66.4,37.2,29.90,East,83,6.0,7.0,34,0.00,,,0.00,Wunderground v.1.13,2013-10-21 21:45:00,
2013-10-21 17:50:00,66.3,37.8,29.90,ENE,73,6.0,7.0,35,0.00,,,0.00,Wunderground v.1.13,2013-10-21 21:50:00,
2013-10-21 18:00:00,66.3,37.8,29.90,East,88,5.0,7.0,35,0.00,,,0.00,Wunderground v.1.13,2013-10-21 22:00:00,
2013-10-21 18:05:00,66.1,37.6,29.90,East,83,5.0,7.0,35,0.00,,,0.00,Wunderground v.1.13,2013-10-21 22:05:00,
2013-10-21 18:10:00,66.3,37.8,29.90,ENE,69,5.0,5.0,35,0.00,,,0.00,Wunderground v.1.13,2013-10-21 22:10:00,
2013-10-21 18:15:00,66.3,37.8,29.90,ENE,69,5.0,5.0,35,0.00,,,0.00,Wunderground v.1.13,2013-10-21 22:15:00,
2013-10-21 18:20:00,66.1,38.4,29.90,NE,48,4.0,4.0,36,0.00,,,0.00,Wunderground v.1.13,2013-10-21 22:20:00,
2013-10-21 18:25:00,66.0,38.3,29.90,ENE,69,3.0,7.0,36,0.00,,,0.00,Wunderground v.1.13,2013-10-21 22:25:00,
2013-10-21 18:30:00,66.0,39.0,29.90,ENE,78,2.0,2.0,37,0.00,,,0.00,Wunderground v.1.13,2013-10-21 22:30:00,
2013-10-21 18:40:00,66.0,39.0,29.90,ENE,73,2.0,7.0,37,0.00,,,0.00,Wunderground v.1.13,2013-10-21 22:40:00,
2013-10-21 18:45:00,66.0,39.0,29.90,ENE,76,2.0,2.0,37,0.00,,,0.00,Wunderground v.1.13,2013-10-21 22:45:00,
2013-10-21 18:50:00,65.8,39.5,29.90,East,85,2.0,7.0,38,0.00,,,0.00,Wunderground v.1.13,2013-10-21 22:50:00,
2013-10-21 18:55:00,65.6,39.3,29.90,East,85,1.0,7.0,38,0.00,,,0.00,Wunderground v.1.13,2013-10-21 22:55:00,
2013-10-21 19:00:00,65.6,39.3,29.90,East,83,1.0,7.0,38,0.00,,,0.00,Wunderground v.1.13,2013-10-21 23:00:00,
2013-10-21 19:05:00,65.5,39.2,29.90,East,83,1.0,7.0,38,0.00,,,0.00,Wunderground v.1.13,2013-10-21 23:05:00,
2013-10-21 19:10:00,65.5,39.2,29.90,East,82,2.0,2.0,38,0.00,,,0.00,Wunderground v.1.13,2013-10-21 23:10:00,
2013-10-21 19:15:00,65.3,39.7,29.90,East,82,1.0,1.0,39,0.00,,,0.00,Wunderground v.1.13,2013-10-21 23:15:00,
2013-10-21 19:20:00,65.3,39.0,29.91,ENE,68,1.0,1.0,38,0.00,,,0.00,Wunderground v.1.13,2013-10-21 23:20:00,
2013-10-21 19:25:00,65.3,39.7,29.91,ENE,68,1.0,7.0,39,0.00,,,0.00,Wunderground v.1.13,2013-10-21 23:25:00,
2013-10-21 19:35:00,65.2,39.6,29.90,ENE,73,1.0,1.0,39,0.00,,,0.00,Wunderground v.1.13,2013-10-21 23:35:00,
2013-10-21 19:40:00,64.8,39.2,29.90,ENE,73,1.0,7.0,39,0.00,,,0.00,Wunderground v.1.13,2013-10-21 23:40:00,
2013-10-21 19:45:00,64.5,39.6,29.90,ENE,75,1.0,7.0,40,0.00,,,0.00,Wunderground v.1.13,2013-10-21 23:45:00,
2013-10-21 19:50:00,64.2,39.4,29.90,ENE,75,2.0,7.0,40,0.00,,,0.00,Wunderground v.1.13,2013-10-21 23:50:00,
2013-10-21 19:55:00,63.9,39.7,29.90,East,83,2.0,7.0,41,0.00,,,0.00,Wunderground v.1.13,2013-10-21 23:55:00,
2013-10-21 20:05:00,63.7,39.5,29.90,East,88,2.0,7.0,41,0.00,,,0.00,Wunderground v.1.13,2013-10-22 00:05:00,
2013-10-21 20:10:00,63.7,39.5,29.90,East,82,2.0,7.0,41,0.00,,,0.00,Wunderground v.1.13,2013-10-22 00:10:00,
2013-10-21 20:15:00,63.5,39.4,29.90,East,82,1.0,1.0,41,0.00,,,0.00,Wunderground v.1.13,2013-10-22 00:15:00,
2013-10-21 20:20:00,63.5,40.0,29.90,ENE,68,1.0,1.0,42,0.00,,,0.00,Wunderground v.1.13,2013-10-22 00:20:00,
2013-10-21 20:25:00,63.4,41.1,29.90,ENE,68,0.0,7.0,44,0.00,,,0.00,Wunderground v.1.13,2013-10-22 00:25:00,
2013-10-21 20:30:00,63.1,41.4,29.90,NE,41,0.0,7.0,45,0.00,,,0.00,Wunderground v.1.13,2013-10-22 00:30:00,
2013-10-21 20:40:00,62.6,42.1,29.90,NE,47,0.0,7.0,47,0.00,,,0.00,Wunderground v.1.13,2013-10-22 00:40:00,
2013-10-21 20:45:00,62.4,41.9,29.90,NE,45,0.0,7.0,47,0.00,,,0.00,Wunderground v.1.13,2013-10-22 00:45:00,
2013-10-21 20:50:00,62.1,42.2,29.90,NE,45,0.0,7.0,48,0.00,,,0.00,Wunderground v.1.13,2013-10-22 00:50:00,
2013-10-21 20:55:00,62.0,42.6,29.90,NE,44,0.0,7.0,49,0.00,,,0.00,Wunderground v.1.13,2013-10-22 00:55:00,
2013-10-21 21:00:00,61.8,42.4,29.90,NE,44,0.0,7.0,49,0.00,,,0.00,Wunderground v.1.13,2013-10-22 01:00:00,
2013-10-21 21:10:00,61.6,41.7,29.90,ENE,65,1.0,7.0,48,0.00,,,0.00,Wunderground v.1.13,2013-10-22 01:10:00,
2013-10-21 21:15:00,61.6,40.6,29.90,East,82,2.0,7.0,46,0.00,,,0.00,Wunderground v.1.13,2013-10-22 01:15:00,
2013-10-21 21:20:00,61.6,40.6,29.90,East,97,2.0,7.0,46,0.00,,,0.00,Wunderground v.1.13,2013-10-22 01:20:00,
2013-10-21 21:25:00,61.6,41.2,29.90,ESE,103,3.0,3.0,47,0.00,,,0.00,Wunderground v.1.13,2013-10-22 01:25:00,
2013-10-21 21:30:00,61.6,41.2,29.90,East,86,2.0,7.0,47,0.00,,,0.00,Wunderground v.1.13,2013-10-22 01:30:00,
2013-10-21 21:35:00,61.6,41.2,29.90,ENE,75,1.0,7.0,47,0.00,,,0.00,Wunderground v.1.13,2013-10-22 01:35:00,
2013-10-21 21:45:00,61.5,41.6,29.90,SE,124,2.0,2.0,48,0.00,,,0.00,Wunderground v.1.13,2013-10-22 01:45:00,
2013-10-21 21:50:00,61.3,42.0,29.90,East,95,3.0,3.0,49,0.00,,,0.00,Wunderground v.1.13,2013-10-22 01:50:00,
2013-10-21 21:55:00,61.2,42.4,29.90,East,99,3.0,3.0,50,0.00,,,0.00,Wunderground v.1.13,2013-10-22 01:55:00,
2013-10-21 22:00:00,61.0,43.2,29.90,East,83,2.0,2.0,52,0.00,,,0.00,Wunderground v.1.13,2013-10-22 02:00:00,
2013-10-21 22:05:00,60.9,43.1,29.91,ESE,114,2.0,7.0,52,0.00,,,0.00,Wunderground v.1.13,2013-10-22 02:05:00,
2013-10-21 22:10:00,60.7,43.9,29.91,SSE,168,2.0,2.0,54,0.00,,,0.00,Wunderground v.1.13,2013-10-22 02:10:00,
2013-10-21 22:15:00,60.5,44.2,29.91,SSW,193,1.0,1.0,55,0.00,,,0.00,Wunderground v.1.13,2013-10-22 02:15:00,
2013-10-21 22:20:00,60.5,44.7,29.90,SSE,155,0.0,7.0,56,0.00,,,0.00,Wunderground v.1.13,2013-10-22 02:20:00,
2013-10-21 22:25:00,60.5,45.2,29.90,South,176,1.0,1.0,57,0.00,,,0.00,Wunderground v.1.13,2013-10-22 02:25:00,
2013-10-21 22:30:00,60.4,45.5,29.90,SSE,148,1.0,7.0,58,0.00,,,0.00,Wunderground v.1.13,2013-10-22 02:30:00,
2013-10-21 22:35:00,60.1,45.7,29.91,SE,143,2.0,7.0,59,0.00,,,0.00,Wunderground v.1.13,2013-10-22 02:35:00,
2013-10-21 22:45:00,59.5,46.0,29.91,NW,311,3.0,7.0,61,0.00,,,0.00,Wunderground v.1.13,2013-10-22 02:45:00,
2013-10-21 22:50:00,59.2,46.6,29.91,ESE,120,3.0,3.0,63,0.00,,,0.00,Wunderground v.1.13,2013-10-22 02:50:00,
2013-10-21 22:55:00,58.7,45.7,29.91,SE,137,2.0,7.0,62,0.00,,,0.00,Wunderground v.1.13,2013-10-22 02:55:00,
2013-10-21 23:00:00,58.3,45.8,29.91,West,280,2.0,7.0,63,0.00,,,0.00,Wunderground v.1.13,2013-10-22 03:00:00,
2013-10-21 23:05:00,58.0,45.9,29.92,SSE,168,3.0,7.0,64,0.00,,,0.00,Wunderground v.1.13,2013-10-22 03:05:00,
2013-10-21 23:10:00,57.5,45.8,29.92,WSW,237,3.0,7.0,65,0.00,,,0.00,Wunderground v.1.13,2013-10-22 03:10:00,
2013-10-21 23:20:00,57.0,46.9,29.92,SE,143,2.0,2.0,69,0.00,,,0.00,Wunderground v.1.13,2013-10-22 03:20:00,
2013-10-21 23:25:00,56.7,47.0,29.92,SSE,161,2.0,2.0,70,0.00,,,0.00,Wunderground v.1.13,2013-10-22 03:25:00,
2013-10-21 23:30:00,56.3,47.4,29.92,SSW,203,2.0,7.0,72,0.00,,,0.00,Wunderground v.1.13,2013-10-22 03:30:00,
2013-10-21 23:35:00,55.7,46.8,29.92,NW,306,4.0,7.0,72,0.00,,,0.00,Wunderground v.1.13,2013-10-22 03:35:00,
2013-10-21 23:40:00,55.3,47.5,29.92,WSW,239,4.0,4.0,75,0.00,,,0.00,Wunderground v.1.13,2013-10-22 03:40:00,
2013-10-21 23:50:00,54.7,47.3,29.92,SE,133,3.0,3.0,76,0.00,,,0.00,Wunderground v.1.13,2013-10-22 03:50:00,
2013-10-21 23:55:00,54.4,47.3,29.92,South,172,2.0,2.0,77,0.00,,,0.00,Wunderground v.1.13,2013-10-22 03:55:00,